Simultaneous Nadir Overpasses (SNOs) Predictions

Prediction of SNOs between TERRA and METOP-C Satellite Orbit:

Table of predicted SNOs for the next 14.0 days since TLE Epoch: 8/26/2023
Index Date (TERRA) Time (TERRA) Lat,Lon (TERRA) SZA (TERRA ) Date (METOP-C) Time (METOP-C) Lat,Lon (METOP-C) SZA (METOP-C ) Distance(km) Time Diff (sec)
1 08/27/2023 09:48:06 -80.67,-117.00 108.20 08/27/2023 09:47:38 -80.66,-117.13 108.23 2.62 28
2 08/27/2023 10:37:27 80.71, 51.12 71.90 08/27/2023 10:38:17 80.71, 50.99 71.90 2.47 50
3 08/30/2023 01:09:30 80.64,-167.71 72.70 08/30/2023 01:08:35 80.65,-167.61 72.69 1.93 55
4 08/30/2023 01:58:50 -80.70, 0.56 107.20 08/30/2023 01:59:13 -80.69, 0.46 107.20 1.70 23
5 09/01/2023 17:20:13 80.68, -50.01 73.74 09/01/2023 17:20:10 80.68, -50.07 73.73 1.14 3
6 09/01/2023 18:09:21 -81.07, 122.39 105.51 09/01/2023 18:10:35 -80.97, 122.60 105.54 11.47 74
7 09/04/2023 08:41:36 -80.63,-100.85 105.37 09/04/2023 08:41:07 -80.63,-101.03 105.40 3.22 29
8 09/04/2023 09:30:56 80.70, 67.53 74.77 09/04/2023 09:31:45 80.70, 67.42 74.78 1.96 49
9 09/07/2023 00:02:56 80.64,-151.13 75.64 09/07/2023 00:02:01 80.65,-151.00 75.64 2.44 55



Historial Predications of SNOs between TERRA and METOP-C
